Location: Ferchesar
(52.6477°N, 12.4298°E)
Time: 10:18:08
(UTC+01:00)

Tiros 1 despin weight - Pass Details

Date: 16 December 2021
Orbit: 592 x 641 km, 48.2° (Epoch: 19 January)

Event Time Altitude Azimuth Distance (km) Brightness Sun altitude
Rises 12:50:54 0° 272° (W) 2,856 ? 13.4°
Reaches altitude 10° 12:53:21 10° 264° (W) 1,944 ? 13.3°
Maximum altitude 12:57:23 35° 199° (SSW) 972 ? 13.2°
Drops below altitude 10° 13:01:23 10° 133° (SE) 1,922 ? 13.1°
Sets 13:03:48 0° 125° (SE) 2,819 ? 13.0°
